DW4070 Weather Reports


time (UTC)temp
F
wind
direction
speed
knots
gust
knots
rain 1hr
in
rain 24hr
in
rain mn
in
humidity
%
barometer
mb
20260906020043 64 103 0.0 0.0 0.00 0.00 0.00 91 1013.4
20260906014544 64 103 0.0 0.0 0.00 0.00 0.00 91 1013.3
20260906013035 65 103 0.0 0.0 0.00 0.00 0.00 90 1013.1
20260906011531 65 103 0.0 0.0 0.00 0.00 0.00 90 1012.9
20260906010029 65 103 0.0 0.0 0.00 0.00 0.00 89 1012.7
20260906004528 66 103 0.0 0.0 0.00 0.00 0.00 88 1012.6
20260906003026 67 103 0.0 0.0 0.00 0.00 0.00 87 1012.5
20260906001527 68 103 0.0 0.0 0.00 0.00 0.00 86 1012.3
20260906000024 69 103 0.0 0.0 0.00 0.00 0.00 84 1012.0
20260905234522 69 103 0.0 0.0 0.00 0.00 0.00 81 1012.0
20260905233032 70 103 0.0 0.0 0.00 0.00 0.00 81 1011.8
20260905231525 71 103 0.0 0.0 0.00 0.00 0.00 81 1011.8
20260905230021 71 103 0.0 1.7 0.00 0.00 0.00 84 1011.7
20260905224522 72 103 0.0 0.0 0.00 0.00 0.00 82 1011.5
20260905223020 72 103 0.0 0.0 0.00 0.00 0.00 82 1011.4
20260905221530 73 103 0.0 0.0 0.00 0.00 0.00 81 1011.3
20260905220019 73 273 0.0 1.7 0.00 0.00 0.00 79 1011.2
20260905214520 74 283 0.0 0.0 0.00 0.00 0.00 79 1011.2
20260905213019 74 283 0.0 0.0 0.00 0.00 0.00 76 1011.1
20260905211527 75 283 0.0 0.0 0.00 0.00 0.00 76 1011.0
20260905210017 75 283 0.0 0.0 0.00 0.00 0.00 70 1010.8
20260905204516 75 283 0.0 0.9 0.00 0.00 0.00 69 1010.7
20260905203017 76 283 0.0 1.7 0.00 0.00 0.00 62 1010.6
20260905201516 76 283 0.0 0.9 0.00 0.00 0.00 67 1010.6
20260905200016 77 283 0.0 2.6 0.00 0.00 0.00 59 1010.7
20260905194515 78 283 0.0 1.7 0.00 0.00 0.00 59 1010.6
20260905193013 79 283 0.0 1.7 0.00 0.00 0.00 59 1010.7
20260905191515 80 283 0.0 1.7 0.00 0.00 0.00 58 1010.7
20260905190012 80 283 0.0 1.7 0.00 0.00 0.00 59 1010.8
20260905184516 80 283 0.0 2.6 0.00 0.00 0.00 59 1010.8
20260905183009 79 283 0.0 0.9 0.00 0.00 0.00 62 1010.9
20260905181508 78 283 0.0 0.0 0.00 0.00 0.00 71 1011.1
20260905180008 78 283 0.0 1.7 0.00 0.00 0.00 64 1011.2
20260905174508 78 283 0.0 2.6 0.00 0.00 0.00 66 1011.3
20260905173007 79 283 0.0 2.6 0.00 0.00 0.00 63 1011.3
20260905171509 79 283 0.0 0.9 0.00 0.00 0.00 64 1011.5
20260905170004 79 283 0.9 2.6 0.00 0.00 0.00 60 1011.5
20260905164508 78 283 0.0 2.6 0.00 0.00 0.00 68 1011.5
20260905163001 78 283 0.0 2.6 0.00 0.00 0.00 68 1011.5
20260905161559 78 283 0.0 1.7 0.00 0.00 0.00 66 1011.4
20260905160057 77 283 0.0 2.6 0.00 0.00 0.00 70 1011.5
20260905154605 77 283 0.0 4.3 0.00 0.00 0.00 65 1011.5
20260905153053 76 283 0.0 3.5 0.00 0.00 0.00 70 1011.5
20260905151549 74 283 0.9 3.5 0.00 0.00 0.00 72 1011.6
20260905150046 73 283 0.0 2.6 0.00 0.00 0.00 74 1011.7
20260905144543 71 282 0.0 2.6 0.00 0.00 0.00 76 1011.6
20260905143041 71 282 0.0 1.7 0.00 0.00 0.00 80 1011.6
20260905141537 70 282 0.9 3.5 0.00 0.00 0.00 82 1011.4
20260905140036 69 283 0.0 2.6 0.00 0.00 0.00 84 1011.4
20260905134542 69 282 0.0 1.7 0.00 0.00 0.00 83 1011.5
20260905133028 68 282 0.0 2.6 0.00 0.00 0.00 84 1011.6
20260905131526 67 282 0.0 2.6 0.00 0.00 0.00 86 1011.6
20260905130021 66 282 0.0 1.7 0.00 0.00 0.00 87 1011.8
20260905124522 65 282 0.0 0.0 0.00 0.00 0.00 90 1011.7
20260905123020 64 282 0.0 0.0 0.00 0.00 0.00 93 1011.9
20260905121518 63 282 0.0 0.0 0.00 0.00 0.00 94 1011.9
20260905120024 62 282 0.0 0.0 0.00 0.00 0.00 95 1011.9
20260905114517 62 282 0.0 0.0 0.00 0.00 0.00 95 1011.7
20260905113015 61 282 0.0 0.0 0.00 0.00 0.00 94 1011.5
20260905111515 61 282 0.0 0.0 0.00 0.00 0.00 94 1011.3
20260905110114 61 282 0.0 0.0 0.00 0.00 0.00 93 1011.2
20260905104513 61 282 0.0 0.0 0.00 0.00 0.00 93 1011.1
20260905103012 61 282 0.0 0.0 0.00 0.00 0.00 93 1011.0
20260905101510 61 282 0.0 0.0 0.00 0.00 0.00 92 1010.9
20260905100009 62 282 0.0 0.0 0.00 0.00 0.00 92 1010.8
20260905094508 62 282 0.0 0.0 0.00 0.00 0.00 92 1010.7
20260905093006 62 282 0.0 0.0 0.00 0.00 0.00 92 1010.7
20260905091507 63 282 0.0 0.0 0.00 0.00 0.00 91 1010.6
20260905090005 63 282 0.0 0.0 0.00 0.01 0.00 90 1010.6
20260905084600 64 282 0.0 0.0 0.00 0.01 0.00 89 1010.6
20260905083058 64 282 0.0 0.0 0.00 0.01 0.00 89 1010.7
20260905081557 65 282 0.0 0.0 0.00 0.01 0.00 89 1010.7
20260905080056 65 282 0.0 0.0 0.00 0.01 0.00 90 1010.7
20260905074555 65 282 0.0 0.0 0.00 0.08 0.00 91 1010.6
20260905073053 65 282 0.0 0.0 0.00 0.08 0.00 93 1010.5
20260905071552 65 282 0.0 0.0 0.00 0.08 0.00 92 1010.7
20260905070051 65 282 0.0 0.0 0.00 0.08 0.00 95 1010.7
20260905064552 65 282 0.0 0.0 0.00 0.22 0.00 94 1010.8
20260905063048 65 282 0.0 0.0 0.00 0.22 0.00 94 1010.9
20260905061558 65 282 0.0 0.0 0.00 0.22 0.00 95 1011.0
20260905060048 65 282 0.0 0.0 0.00 0.22 0.00 95 1011.1
20260905054543 66 282 0.0 0.0 0.00 0.32 0.00 95 1011.3
20260905053042 66 282 0.0 0.0 0.00 0.32 0.00 95 1011.4
20260905051541 66 282 0.0 0.0 0.00 0.32 0.00 95 1011.3
20260905050039 66 282 0.0 0.0 0.00 0.32 0.00 95 1011.5
20260905044543 66 282 0.0 0.0 0.00 0.35 0.00 95 1011.6
20260905043045 66 282 0.0 0.0 0.00 0.35 0.00 95 1011.8
20260905041534 66 282 0.0 0.0 0.00 0.35 0.00 95 1011.8
20260905040034 66 282 0.0 0.0 0.00 0.35 0.00 95 1011.7
20260905034534 66 282 0.0 0.0 0.00 0.36 0.35 95 1011.9
20260905033034 66 282 0.0 0.0 0.00 0.36 0.35 95 1011.9
20260905031535 66 282 0.0 0.0 0.00 0.36 0.35 95 1011.9
20260905030033 66 282 0.0 0.0 0.00 0.36 0.35 94 1011.7
20260905024530 66 282 0.0 0.0 0.00 0.36 0.35 94 1011.6
20260905023030 66 282 0.0 0.0 0.00 0.36 0.35 94 1011.5
20260905021532 67 282 0.0 0.0 0.00 0.36 0.35 94 1011.6